| time (UTC) | temp F | wind direction | speed MPH | gust MPH | rain 1hr in | rain 24hr in | rain mn in | humidity % | barometer mb |
| 20260510230610 | 47 | 247 | 5.0 | 7.0 | 0.00 | 0.00 | 0.00 | 75 | 1010.2 |
| 20260510225908 | 47 | 293 | 1.0 | 5.0 | 0.00 | 0.00 | 0.00 | 75 | 1010.2 |
| 20260510225205 | 47 | 289 | 2.0 | 5.0 | 0.00 | 0.00 | 0.00 | 75 | 1010.3 |
| 20260510224504 | 47 | 265 | 2.0 | 3.0 | 0.00 | 0.00 | 0.00 | 74 | 1010.3 |
| 20260510223801 | 47 | 249 | 2.0 | 3.0 | 0.00 | 0.00 | 0.00 | 74 | 1010.4 |
| 20260510223100 | 47 | 261 | 3.0 | 10.0 | 0.00 | 0.00 | 0.00 | 74 | 1010.4 |
| 20260510222410 | 47 | 274 | 2.0 | 3.0 | 0.00 | 0.00 | 0.00 | 74 | 1010.5 |
| 20260510221708 | 47 | 6 | 2.0 | 8.0 | 0.00 | 0.00 | 0.00 | 74 | 1010.6 |
| 20260510221008 | 47 | 304 | 3.0 | 8.0 | 0.00 | 0.00 | 0.00 | 74 | 1010.6 |
| 20260510220307 | 47 | 272 | 3.0 | 8.0 | 0.00 | 0.00 | 0.00 | 74 | 1010.6 |
| 20260510215604 | 47 | 258 | 1.0 | 6.0 | 0.00 | 0.00 | 0.00 | 74 | 1010.6 |
| 20260510214902 | 47 | 252 | 2.0 | 5.0 | 0.00 | 0.00 | 0.00 | 73 | 1010.6 |
| 20260510214201 | 48 | 268 | 1.0 | 2.0 | 0.00 | 0.00 | 0.00 | 72 | 1010.7 |
| 20260510213511 | 48 | 21 | 1.0 | 3.0 | 0.00 | 0.00 | 0.00 | 71 | 1010.7 |
| 20260510212810 | 48 | 266 | 3.0 | 5.0 | 0.00 | 0.00 | 0.00 | 71 | 1010.7 |
| 20260510212108 | 48 | 257 | 5.0 | 6.0 | 0.00 | 0.00 | 0.00 | 71 | 1010.8 |
| 20260510211405 | 48 | 306 | 1.0 | 3.0 | 0.00 | 0.00 | 0.00 | 70 | 1011.0 |
| 20260510210702 | 48 | 337 | 1.0 | 2.0 | 0.00 | 0.00 | 0.00 | 69 | 1011.1 |
| 20260510210012 | 48 | 1 | 2.0 | 5.0 | 0.00 | 0.00 | 0.00 | 69 | 1011.1 |
| 20260510205309 | 48 | 321 | 5.0 | 7.0 | 0.00 | 0.00 | 0.00 | 69 | 1011.2 |
| 20260510204607 | 48 | 248 | 1.0 | 2.0 | 0.00 | 0.00 | 0.00 | 68 | 1011.2 |
| 20260510203904 | 48 | 248 | 1.0 | 1.0 | 0.00 | 0.00 | 0.00 | 68 | 1011.3 |
| 20260510203204 | 49 | 259 | 2.0 | 5.0 | 0.00 | 0.00 | 0.00 | 68 | 1011.1 |
| 20260510202502 | 49 | 274 | 5.0 | 5.0 | 0.00 | 0.00 | 0.00 | 68 | 1011.3 |
| 20260510201811 | 49 | 250 | 2.0 | 8.0 | 0.00 | 0.00 | 0.00 | 67 | 1011.3 |
| 20260510201108 | 49 | 282 | 2.0 | 7.0 | 0.00 | 0.00 | 0.00 | 67 | 1011.4 |
| 20260510200406 | 49 | 248 | 3.0 | 7.0 | 0.00 | 0.00 | 0.00 | 67 | 1011.4 |
| 20260510195703 | 49 | 257 | 2.0 | 2.0 | 0.00 | 0.00 | 0.00 | 67 | 1011.4 |
| 20260510195001 | 49 | 2 | 1.0 | 2.0 | 0.00 | 0.00 | 0.00 | 67 | 1011.6 |
| 20260510194312 | 49 | 253 | 2.0 | 2.0 | 0.00 | 0.00 | 0.00 | 67 | 1011.7 |
| 20260510193611 | 49 | 258 | 2.0 | 3.0 | 0.00 | 0.00 | 0.00 | 67 | 1011.9 |
| 20260510192909 | 49 | 257 | 3.0 | 5.0 | 0.00 | 0.00 | 0.00 | 67 | 1011.8 |
| 20260510192206 | 49 | 250 | 1.0 | 5.0 | 0.00 | 0.00 | 0.00 | 66 | 1012.0 |
| 20260510191505 | 49 | 310 | 2.0 | 9.0 | 0.00 | 0.00 | 0.00 | 66 | 1011.9 |
| 20260510190802 | 49 | 248 | 2.0 | 3.0 | 0.00 | 0.00 | 0.00 | 67 | 1011.9 |
| 20260510185412 | 49 | 268 | 3.0 | 5.0 | 0.00 | 0.00 | 0.00 | 66 | 1012.0 |
| 20260510184710 | 49 | 279 | 2.0 | 5.0 | 0.00 | 0.00 | 0.00 | 64 | 1012.0 |
| 20260510184008 | 49 | 323 | 2.0 | 5.0 | 0.00 | 0.00 | 0.00 | 63 | 1012.0 |
| 20260510183307 | 49 | 248 | 2.0 | 2.0 | 0.00 | 0.00 | 0.00 | 61 | 1012.4 |
| 20260510182605 | 50 | 267 | 2.0 | 3.0 | 0.00 | 0.00 | 0.00 | 60 | 1012.4 |
| 20260510181902 | 50 | 326 | 3.0 | 5.0 | 0.00 | 0.00 | 0.00 | 59 | 1012.4 |
| 20260510181211 | 50 | 248 | 0.0 | 0.0 | 0.00 | 0.00 | 0.00 | 57 | 1012.5 |
| 20260510180509 | 50 | 248 | 0.0 | 0.0 | 0.00 | 0.00 | 0.00 | 57 | 1012.5 |
| 20260510175808 | 50 | 248 | 1.0 | 3.0 | 0.00 | 0.00 | 0.00 | 56 | 1012.5 |
| 20260510175105 | 50 | 258 | 1.0 | 2.0 | 0.00 | 0.00 | 0.00 | 55 | 1012.6 |
| 20260510174403 | 51 | 248 | 0.0 | 0.0 | 0.00 | 0.00 | 0.00 | 55 | 1012.6 |
| 20260510173712 | 51 | 287 | 1.0 | 2.0 | 0.00 | 0.00 | 0.00 | 55 | 1012.8 |
| 20260510173011 | 51 | 248 | 3.0 | 3.0 | 0.00 | 0.00 | 0.00 | 54 | 1012.8 |
| 20260510172309 | 51 | 248 | 0.0 | 0.0 | 0.00 | 0.00 | 0.00 | 53 | 1012.9 |
| 20260510171608 | 51 | 239 | 3.0 | 2.0 | 0.00 | 0.00 | 0.00 | 53 | 1013.0 |
| 20260510170905 | 52 | 248 | 0.0 | 0.0 | 0.00 | 0.00 | 0.00 | 52 | 1013.0 |
| 20260510170203 | 52 | 256 | 0.0 | 3.0 | 0.00 | 0.00 | 0.00 | 52 | 1013.1 |
| 20260510165502 | 52 | 352 | 2.0 | 2.0 | 0.00 | 0.00 | 0.00 | 52 | 1013.1 |
| 20260510164812 | 52 | 276 | 2.0 | 5.0 | 0.00 | 0.00 | 0.00 | 51 | 1013.2 |
| 20260510164110 | 53 | 319 | 3.0 | 6.0 | 0.00 | 0.00 | 0.00 | 51 | 1013.2 |
| 20260510163408 | 53 | 287 | 2.0 | 6.0 | 0.00 | 0.00 | 0.00 | 50 | 1013.3 |
| 20260510162706 | 53 | 308 | 1.0 | 3.0 | 0.00 | 0.00 | 0.00 | 50 | 1013.4 |
| 20260510162004 | 53 | 248 | 0.0 | 1.0 | 0.00 | 0.00 | 0.00 | 49 | 1013.3 |
| 20260510161303 | 53 | 252 | 2.0 | 8.0 | 0.00 | 0.00 | 0.00 | 49 | 1013.3 |
| 20260510160611 | 53 | 246 | 5.0 | 7.0 | 0.00 | 0.00 | 0.00 | 49 | 1013.3 |
| 20260510155910 | 54 | 273 | 5.0 | 6.0 | 0.00 | 0.00 | 0.00 | 48 | 1013.4 |
| 20260510155208 | 54 | 259 | 2.0 | 6.0 | 0.00 | 0.00 | 0.00 | 48 | 1013.6 |
| 20260510154505 | 54 | 283 | 2.0 | 5.0 | 0.00 | 0.00 | 0.00 | 48 | 1013.8 |
| 20260510153803 | 54 | 249 | 2.0 | 5.0 | 0.00 | 0.00 | 0.00 | 47 | 1013.9 |
| 20260510153101 | 54 | 276 | 2.0 | 3.0 | 0.00 | 0.00 | 0.00 | 47 | 1014.0 |
| 20260510152410 | 54 | 297 | 3.0 | 6.0 | 0.00 | 0.00 | 0.00 | 47 | 1014.1 |
| 20260510151708 | 54 | 266 | 3.0 | 8.0 | 0.00 | 0.00 | 0.00 | 46 | 1014.3 |
| 20260510151005 | 54 | 277 | 5.0 | 10.0 | 0.00 | 0.00 | 0.00 | 46 | 1014.4 |
| 20260510150303 | 54 | 314 | 6.0 | 8.0 | 0.00 | 0.00 | 0.00 | 46 | 1014.5 |
| 20260510145601 | 55 | 255 | 5.0 | 8.0 | 0.00 | 0.00 | 0.00 | 45 | 1014.5 |
| 20260510144911 | 55 | 260 | 6.0 | 16.0 | 0.00 | 0.00 | 0.00 | 45 | 1014.6 |
| 20260510144209 | 55 | 2 | 7.0 | 12.0 | 0.00 | 0.00 | 0.00 | 44 | 1014.8 |
| 20260510143505 | 55 | 310 | 7.0 | 13.0 | 0.00 | 0.00 | 0.00 | 44 | 1014.7 |
| 20260510142804 | 55 | 277 | 8.0 | 7.0 | 0.00 | 0.00 | 0.00 | 43 | 1014.9 |
| 20260510142103 | 56 | 327 | 8.0 | 16.0 | 0.00 | 0.00 | 0.00 | 43 | 1015.1 |
| 20260510141412 | 56 | 344 | 8.0 | 7.0 | 0.00 | 0.00 | 0.00 | 42 | 1015.2 |
| 20260510140710 | 56 | 17 | 9.0 | 12.0 | 0.00 | 0.00 | 0.00 | 42 | 1015.3 |
| 20260510140007 | 57 | 350 | 5.0 | 16.0 | 0.00 | 0.00 | 0.00 | 40 | 1015.3 |
| 20260510135306 | 57 | 300 | 2.0 | 3.0 | 0.00 | 0.00 | 0.00 | 40 | 1015.4 |
| 20260510134603 | 57 | 272 | 3.0 | 9.0 | 0.00 | 0.00 | 0.00 | 40 | 1015.4 |
| 20260510133902 | 58 | 251 | 8.0 | 13.0 | 0.00 | 0.00 | 0.00 | 39 | 1015.5 |
| 20260510133211 | 59 | 340 | 5.0 | 7.0 | 0.00 | 0.00 | 0.00 | 39 | 1015.5 |
| 20260510132510 | 59 | 251 | 3.0 | 5.0 | 0.00 | 0.00 | 0.00 | 39 | 1015.6 |
| 20260510131808 | 59 | 272 | 3.0 | 14.0 | 0.00 | 0.00 | 0.00 | 38 | 1015.6 |
| 20260510131106 | 60 | 298 | 5.0 | 8.0 | 0.00 | 0.00 | 0.00 | 37 | 1015.7 |
| 20260510130403 | 61 | 290 | 6.0 | 9.0 | 0.00 | 0.00 | 0.00 | 37 | 1015.7 |
| 20260510125702 | 62 | 277 | 6.0 | 12.0 | 0.00 | 0.00 | 0.00 | 36 | 1015.7 |
| 20260510125012 | 61 | 291 | 5.0 | 9.0 | 0.00 | 0.00 | 0.00 | 36 | 1015.8 |
| 20260510124311 | 62 | 308 | 5.0 | 6.0 | 0.00 | 0.00 | 0.00 | 35 | 1015.7 |
| 20260510123610 | 62 | 263 | 3.0 | 3.0 | 0.00 | 0.00 | 0.00 | 35 | 1015.9 |
| 20260510122909 | 63 | 289 | 5.0 | 8.0 | 0.00 | 0.00 | 0.00 | 34 | 1016.0 |
| 20260510122207 | 64 | 10 | 5.0 | 6.0 | 0.00 | 0.00 | 0.00 | 34 | 1016.2 |
| 20260510121504 | 64 | 287 | 3.0 | 6.0 | 0.00 | 0.00 | 0.00 | 34 | 1016.2 |
| 20260510120801 | 63 | 258 | 2.0 | 6.0 | 0.00 | 0.00 | 0.00 | 33 | 1016.3 |
| 20260510120111 | 64 | 11 | 6.0 | 15.0 | 0.00 | 0.00 | 0.00 | 33 | 1016.3 |
| 20260510115407 | 63 | 286 | 2.0 | 3.0 | 0.00 | 0.00 | 0.00 | 34 | 1016.4 |
| 20260510114705 | 65 | 302 | 7.0 | 6.0 | 0.00 | 0.00 | 0.00 | 32 | 1016.5 |
| 20260510114003 | 69 | 256 | 8.0 | 10.0 | 0.00 | 0.00 | 0.00 | 31 | 1016.7 |
| 20260510113312 | 71 | 325 | 3.0 | 10.0 | 0.00 | 0.00 | 0.00 | 31 | 1016.7 |
| 20260510112610 | 70 | 301 | 6.0 | 9.0 | 0.00 | 0.00 | 0.00 | 32 | 1016.8 |
| 20260510111907 | 67 | 337 | 5.0 | 7.0 | 0.00 | 0.00 | 0.00 | 33 | 1016.9 |
| 20260510111207 | 65 | 358 | 7.0 | 9.0 | 0.00 | 0.00 | 0.00 | 34 | 1017.0 |
| 20260510110505 | 64 | 5 | 3.0 | 12.0 | 0.00 | 0.00 | 0.00 | 34 | 1017.1 |
| 20260510105803 | 66 | 341 | 3.0 | 5.0 | 0.00 | 0.00 | 0.00 | 33 | 1017.3 |
| 20260510105112 | 64 | 329 | 3.0 | 5.0 | 0.00 | 0.00 | 0.00 | 34 | 1017.4 |
| 20260510104410 | 64 | 296 | 9.0 | 14.0 | 0.00 | 0.00 | 0.00 | 34 | 1017.5 |
| 20260510103709 | 64 | 293 | 6.0 | 16.0 | 0.00 | 0.00 | 0.00 | 34 | 1017.5 |
| 20260510103008 | 64 | 279 | 6.0 | 9.0 | 0.00 | 0.00 | 0.00 | 35 | 1017.8 |
| 20260510102306 | 62 | 313 | 3.0 | 6.0 | 0.00 | 0.00 | 0.00 | 35 | 1017.8 |
| 20260510101603 | 61 | 321 | 3.0 | 5.0 | 0.00 | 0.00 | 0.00 | 36 | 1017.9 |
| 20260510100912 | 61 | 354 | 6.0 | 7.0 | 0.00 | 0.00 | 0.00 | 37 | 1018.0 |
| 20260510100210 | 61 | 354 | 9.0 | 17.0 | 0.00 | 0.00 | 0.00 | 36 | 1018.0 |
| 20260510095508 | 60 | 314 | 3.0 | 7.0 | 0.00 | 0.00 | 0.00 | 38 | 1018.2 |
| 20260510094805 | 60 | 8 | 9.0 | 12.0 | 0.00 | 0.00 | 0.00 | 38 | 1018.2 |
| 20260510094104 | 61 | 359 | 5.0 | 8.0 | 0.00 | 0.00 | 0.00 | 38 | 1018.3 |
| 20260510093412 | 61 | 341 | 6.0 | 12.0 | 0.00 | 0.00 | 0.00 | 38 | 1018.5 |
| 20260510092710 | 62 | 266 | 10.0 | 14.0 | 0.00 | 0.00 | 0.00 | 38 | 1018.7 |
| 20260510092007 | 61 | 257 | 9.0 | 17.0 | 0.00 | 0.00 | 0.00 | 38 | 1018.8 |
| 20260510091305 | 62 | 348 | 5.0 | 9.0 | 0.00 | 0.00 | 0.00 | 38 | 1018.9 |
| 20260510090603 | 62 | 343 | 6.0 | 20.0 | 0.00 | 0.00 | 0.00 | 40 | 1018.9 |
| 20260510085902 | 61 | 322 | 5.0 | 12.0 | 0.00 | 0.00 | 0.00 | 40 | 1018.9 |
| 20260510085212 | 61 | 311 | 6.0 | 9.0 | 0.00 | 0.00 | 0.00 | 38 | 1019.1 |
| 20260510084510 | 61 | 277 | 7.0 | 12.0 | 0.00 | 0.00 | 0.00 | 38 | 1019.3 |
| 20260510083808 | 63 | 299 | 7.0 | 10.0 | 0.00 | 0.00 | 0.00 | 38 | 1019.2 |
| 20260510083106 | 62 | 264 | 8.0 | 12.0 | 0.00 | 0.00 | 0.00 | 39 | 1019.4 |
| 20260510082404 | 62 | 290 | 7.0 | 12.0 | 0.00 | 0.00 | 0.00 | 39 | 1019.5 |
| 20260510081700 | 62 | 329 | 8.0 | 9.0 | 0.00 | 0.00 | 0.00 | 40 | 1019.6 |
| 20260510081011 | 62 | 263 | 7.0 | 9.0 | 0.00 | 0.00 | 0.00 | 39 | 1019.6 |
| 20260510080308 | 63 | 319 | 5.0 | 5.0 | 0.00 | 0.00 | 0.00 | 40 | 1019.8 |
| 20260510075607 | 62 | 288 | 6.0 | 6.0 | 0.00 | 0.00 | 0.00 | 39 | 1019.7 |
| 20260510074905 | 63 | 332 | 6.0 | 8.0 | 0.00 | 0.00 | 0.00 | 39 | 1019.8 |
| 20260510074202 | 64 | 269 | 3.0 | 12.0 | 0.00 | 0.00 | 0.00 | 39 | 1020.1 |
| 20260510073512 | 64 | 321 | 8.0 | 12.0 | 0.00 | 0.00 | 0.00 | 39 | 1020.1 |
| 20260510072809 | 64 | 311 | 3.0 | 3.0 | 0.00 | 0.00 | 0.00 | 39 | 1020.2 |
| 20260510072106 | 65 | 272 | 5.0 | 9.0 | 0.00 | 0.00 | 0.00 | 39 | 1020.3 |
| 20260510071405 | 65 | 349 | 2.0 | 7.0 | 0.00 | 0.00 | 0.00 | 41 | 1020.5 |
| 20260510070701 | 64 | 316 | 2.0 | 6.0 | 0.00 | 0.00 | 0.00 | 41 | 1020.5 |
| 20260510070011 | 63 | 315 | 3.0 | 6.0 | 0.00 | 0.00 | 0.00 | 43 | 1020.5 |
| 20260510065309 | 62 | 3 | 3.0 | 5.0 | 0.00 | 0.00 | 0.00 | 43 | 1020.7 |
| 20260510064607 | 62 | 244 | 3.0 | 7.0 | 0.00 | 0.00 | 0.00 | 43 | 1020.8 |
| 20260510063905 | 61 | 294 | 2.0 | 3.0 | 0.00 | 0.00 | 0.00 | 45 | 1020.8 |
| 20260510063202 | 60 | 277 | 3.0 | 7.0 | 0.00 | 0.00 | 0.00 | 45 | 1021.0 |
| 20260510062512 | 59 | 306 | 3.0 | 7.0 | 0.00 | 0.00 | 0.00 | 47 | 1021.1 |
| 20260510061810 | 59 | 250 | 5.0 | 6.0 | 0.00 | 0.00 | 0.00 | 48 | 1021.0 |
| 20260510061108 | 57 | 254 | 5.0 | 6.0 | 0.00 | 0.00 | 0.00 | 49 | 1021.1 |
| 20260510060406 | 56 | 320 | 3.0 | 6.0 | 0.00 | 0.00 | 0.00 | 51 | 1021.2 |
| 20260510055703 | 55 | 247 | 3.0 | 6.0 | 0.00 | 0.00 | 0.00 | 52 | 1021.3 |
| 20260510055002 | 54 | 282 | 3.0 | 7.0 | 0.00 | 0.00 | 0.00 | 52 | 1021.4 |
| 20260510054301 | 53 | 251 | 2.0 | 5.0 | 0.00 | 0.00 | 0.00 | 54 | 1021.4 |
| 20260510053611 | 52 | 294 | 2.0 | 5.0 | 0.00 | 0.00 | 0.00 | 56 | 1021.5 |
| 20260510052909 | 51 | 249 | 2.0 | 3.0 | 0.00 | 0.00 | 0.00 | 56 | 1021.5 |
| 20260510052205 | 50 | 264 | 3.0 | 3.0 | 0.00 | 0.00 | 0.00 | 57 | 1021.6 |
| 20260510051503 | 49 | 259 | 3.0 | 6.0 | 0.00 | 0.00 | 0.00 | 58 | 1021.6 |
| 20260510050801 | 48 | 337 | 2.0 | 7.0 | 0.00 | 0.00 | 0.00 | 59 | 1021.6 |
| 20260510050111 | 48 | 6 | 5.0 | 7.0 | 0.00 | 0.00 | 0.00 | 60 | 1021.8 |
| 20260510045410 | 47 | 297 | 2.0 | 9.0 | 0.00 | 0.00 | 0.00 | 61 | 1021.9 |
| 20260510044707 | 46 | 334 | 5.0 | 6.0 | 0.00 | 0.00 | 0.00 | 63 | 1022.0 |
| 20260510044005 | 46 | 259 | 3.0 | 3.0 | 0.00 | 0.00 | 0.00 | 63 | 1022.0 |
| 20260510043302 | 45 | 250 | 2.0 | 2.0 | 0.00 | 0.00 | 0.00 | 63 | 1022.0 |
| 20260510042611 | 45 | 304 | 2.0 | 5.0 | 0.00 | 0.00 | 0.00 | 64 | 1022.1 |
| 20260510041910 | 45 | 248 | 3.0 | 6.0 | 0.00 | 0.00 | 0.00 | 64 | 1022.2 |
| 20260510041209 | 44 | 248 | 5.0 | 5.0 | 0.00 | 0.00 | 0.00 | 65 | 1022.2 |
| 20260510040508 | 43 | 327 | 3.0 | 3.0 | 0.00 | 0.00 | 0.00 | 66 | 1022.2 |
| 20260510035806 | 42 | 253 | 2.0 | 7.0 | 0.00 | 0.00 | 0.00 | 67 | 1022.1 |
| 20260510035103 | 41 | 248 | 1.0 | 3.0 | 0.00 | 0.00 | 0.00 | 67 | 1022.2 |
| 20260510034401 | 41 | 248 | 1.0 | 2.0 | 0.00 | 0.00 | 0.00 | 67 | 1022.2 |
| 20260510033710 | 40 | 291 | 2.0 | 2.0 | 0.00 | 0.00 | 0.00 | 67 | 1022.3 |
| 20260510033009 | 40 | 255 | 1.0 | 3.0 | 0.00 | 0.00 | 0.00 | 68 | 1022.3 |
| 20260510032308 | 39 | 250 | 3.0 | 7.0 | 0.00 | 0.00 | 0.00 | 68 | 1022.3 |
| 20260510031606 | 39 | 248 | 2.0 | 3.0 | 0.00 | 0.00 | 0.00 | 69 | 1022.3 |
| 20260510030903 | 38 | 248 | 1.0 | 2.0 | 0.00 | 0.00 | 0.00 | 69 | 1022.4 |
| 20260510030201 | 38 | 248 | 1.0 | 2.0 | 0.00 | 0.00 | 0.00 | 70 | 1022.4 |
| 20260510025511 | 37 | 265 | 1.0 | 3.0 | 0.00 | 0.00 | 0.00 | 70 | 1022.6 |
| 20260510024810 | 37 | 248 | 2.0 | 3.0 | 0.00 | 0.00 | 0.00 | 70 | 1022.5 |
| 20260510024107 | 37 | 275 | 2.0 | 3.0 | 0.00 | 0.00 | 0.00 | 70 | 1022.6 |
| 20260510023406 | 37 | 267 | 2.0 | 3.0 | 0.00 | 0.00 | 0.00 | 70 | 1022.8 |
| 20260510022705 | 37 | 260 | 2.0 | 3.0 | 0.00 | 0.00 | 0.00 | 70 | 1022.8 |
| 20260510022001 | 37 | 248 | 2.0 | 3.0 | 0.00 | 0.00 | 0.00 | 70 | 1022.9 |
| 20260510021312 | 37 | 261 | 2.0 | 2.0 | 0.00 | 0.00 | 0.00 | 70 | 1023.0 |
| 20260510020609 | 37 | 275 | 2.0 | 6.0 | 0.00 | 0.00 | 0.00 | 69 | 1023.0 |
| 20260510015909 | 37 | 266 | 2.0 | 3.0 | 0.00 | 0.00 | 0.00 | 69 | 1023.1 |
| 20260510015208 | 37 | 255 | 2.0 | 5.0 | 0.00 | 0.00 | 0.00 | 68 | 1023.1 |
| 20260510014506 | 37 | 322 | 2.0 | 3.0 | 0.00 | 0.00 | 0.00 | 68 | 1023.2 |
| 20260510013803 | 37 | 256 | 2.0 | 3.0 | 0.00 | 0.00 | 0.00 | 67 | 1023.3 |
| 20260510013112 | 37 | 251 | 0.0 | 1.0 | 0.00 | 0.00 | 0.00 | 65 | 1023.3 |
| 20260510012410 | 38 | 243 | 1.0 | 3.0 | 0.00 | 0.00 | 0.00 | 65 | 1023.3 |
| 20260510011709 | 38 | 248 | 1.0 | 2.0 | 0.00 | 0.00 | 0.00 | 65 | 1023.5 |
| 20260510011008 | 38 | 248 | 1.0 | 2.0 | 0.00 | 0.00 | 0.00 | 65 | 1023.5 |
| 20260510010306 | 38 | 248 | 1.0 | 1.0 | 0.00 | 0.00 | 0.00 | 65 | 1023.8 |
| 20260510005604 | 37 | 252 | 1.0 | 2.0 | 0.00 | 0.00 | 0.00 | 65 | 1023.9 |
| 20260510004902 | 37 | 248 | 1.0 | 2.0 | 0.00 | 0.00 | 0.00 | 65 | 1023.9 |
| 20260510004212 | 37 | 257 | 2.0 | 3.0 | 0.00 | 0.00 | 0.00 | 65 | 1023.9 |
| 20260510003508 | 37 | 248 | 1.0 | 3.0 | 0.00 | 0.00 | 0.00 | 64 | 1023.9 |
| 20260510002806 | 37 | 248 | 0.0 | 1.0 | 0.00 | 0.00 | 0.00 | 64 | 1023.9 |
| 20260510002105 | 38 | 248 | 1.0 | 1.0 | 0.00 | 0.00 | 0.00 | 63 | 1024.0 |
| 20260510001402 | 38 | 285 | 1.0 | 1.0 | 0.00 | 0.00 | 0.00 | 62 | 1023.9 |
| 20260510000701 | 38 | 267 | 2.0 | 3.0 | 0.00 | 0.00 | 0.00 | 62 | 1024.0 |
| 20260510000011 | 38 | 248 | 1.0 | 2.0 | 0.00 | 0.00 | 0.00 | 62 | 1024.1 |
| 20260509235310 | 38 | 250 | 1.0 | 3.0 | 0.00 | 0.00 | 0.00 | 62 | 1024.1 |
| 20260509234608 | 38 | 248 | 0.0 | 2.0 | 0.00 | 0.00 | 0.00 | 61 | 1024.2 |
| 20260509233904 | 38 | 248 | 0.0 | 0.0 | 0.00 | 0.00 | 0.00 | 61 | 1024.2 |
| 20260509233203 | 38 | 248 | 0.0 | 0.0 | 0.00 | 0.00 | 0.00 | 61 | 1024.2 |
| 20260509232511 | 38 | 248 | 1.0 | 2.0 | 0.00 | 0.00 | 0.00 | 62 | 1024.2 |
| 20260509231810 | 37 | 253 | 1.0 | 6.0 | 0.00 | 0.00 | 0.00 | 62 | 1024.4 |